Dyersburg, TN

3:54 AM CST on November 24, 2017 (GMT -0600)
Dyersburg Municipal

Weather History for KDYR - September, 2012

Change the Weather History Date:

Thursday, September 27, 2012

  Actual Average Record
Temperature  
Mean Temperature 74 °F -  
Max Temperature 84 °F 76 °F 91 °F (1998)
Min Temperature 64 °F 54 °F 42 °F (2000)
Cooling Degree Days 9    
Growing Degree Days 24 (Base 50)    
Moisture  
Dew Point 61 °F    
Average Humidity 71    
Maximum Humidity 83    
Minimum Humidity 51    
Precipitation  
Precipitation 0.37 in - - ()
Sea Level Pressure  
Sea Level Pressure 30.11 in    
Wind  
Wind Speed 3 mph (SSE)    
Max Wind Speed 10 mph    
Max Gust Speed 23 mph    
Visibility 9 miles    
Events Thunderstorm    
Averages and records for this station are not official NWS values.
T = Trace of Precipitation, MM = Missing Value Source: NWS Daily Summary

Daily Weather History Graph

Daily Weather History Graph

Search for Another Location

Airport or City:

Trip Planner

Search our weather history database for the weather conditions in past years. The results will help you decide how hot, cold, wet, or windy it might be!

Date:

Astronomy

Sep. 27, 2012 Rise Set
Actual Time 6:49 AM CDT 6:46 PM CDT
Civil Twilight 6:24 AM CDT 7:11 PM CDT
Nautical Twilight 5:54 AM CDT 7:41 PM CDT
Astronomical Twilight 5:24 AM CDT 8:11 PM CDT
Moon 5:15 PM CDT (9/27) 4:22 AM CDT (9/27)
Length of Visible Light 12h 47m
Length of Day
11h 56m
Waxing Gibbous, 94% of the Moon is Illuminated
Sep 27
Waxing Gibbous
Sep 29
Full
Oct 8
Last Quarter
Oct 15
New
Oct 21
First Quarter

Hourly Weather History & Observations

Time (CDT) Temp. Heat Index Dew Point Humidity Pressure Visibility Wind Dir Wind Speed Gust Speed Precip Events Conditions
12:15 AM 64.4 °F - 59.0 °F 83% 30.09 in 8.0 mi SE 3.5 mph - N/A   Clear
12:35 AM 64.4 °F - 57.2 °F 77% 30.10 in 10.0 mi Calm Calm - N/A   Clear
12:55 AM 64.4 °F - 57.2 °F 77% 30.10 in 10.0 mi Calm Calm - N/A   Clear
1:15 AM 64.4 °F - 59.0 °F 83% 30.10 in 7.0 mi SE 3.5 mph - N/A   Scattered Clouds
1:35 AM 66.2 °F - 59.0 °F 78% 30.10 in 9.0 mi SSE 3.5 mph - N/A   Overcast
2:15 AM 66.2 °F - 59.0 °F 78% 30.08 in 10.0 mi SE 4.6 mph - N/A   Clear
2:35 AM 66.2 °F - 59.0 °F 78% 30.08 in 10.0 mi Calm Calm - N/A   Scattered Clouds
2:55 AM 66.2 °F - 59.0 °F 78% 30.09 in 10.0 mi SSE 3.5 mph - N/A   Overcast
3:15 AM 66.2 °F - 59.0 °F 78% 30.10 in 10.0 mi Calm Calm - N/A   Mostly Cloudy
3:35 AM 66.2 °F - 59.0 °F 78% 30.10 in 10.0 mi Calm Calm - N/A   Partly Cloudy
3:55 AM 64.4 °F - 57.2 °F 77% 30.11 in 9.0 mi Calm Calm - N/A   Clear
4:16 AM 64.4 °F - 57.2 °F 77% 30.12 in 10.0 mi Calm Calm - N/A   Clear
4:35 AM 64.4 °F - 57.2 °F 77% 30.12 in 7.0 mi NNE 3.5 mph - N/A   Scattered Clouds
4:55 AM 64.4 °F - 57.2 °F 77% 30.13 in 8.0 mi Calm Calm - N/A   Partly Cloudy
5:16 AM 64.4 °F - 57.2 °F 77% 30.13 in 8.0 mi Calm Calm - N/A   Clear
5:35 AM 64.4 °F - 57.2 °F 77% 30.13 in 6.0 mi NE 3.5 mph - N/A   Clear
5:55 AM 64.4 °F - 57.2 °F 77% 30.14 in 6.0 mi East 4.6 mph - N/A   Clear
6:35 AM 64.4 °F - 57.2 °F 77% 30.15 in 6.0 mi Calm Calm - N/A   Partly Cloudy
6:55 AM 64.4 °F - 57.2 °F 77% 30.15 in 5.0 mi ESE 4.6 mph - N/A   Partly Cloudy
7:15 AM 64.4 °F - 57.2 °F 77% 30.15 in 6.0 mi Calm Calm - N/A   Scattered Clouds
7:36 AM 64.4 °F - 57.2 °F 77% 30.15 in 7.0 mi Calm Calm - N/A   Mostly Cloudy
7:55 AM 66.2 °F - 59.0 °F 78% 30.16 in 10.0 mi SE 3.5 mph - N/A   Scattered Clouds
8:15 AM 66.2 °F - 59.0 °F 78% 30.15 in 10.0 mi SE 5.8 mph - N/A   Mostly Cloudy
8:35 AM 68.0 °F - 60.8 °F 78% 30.15 in 10.0 mi SE 8.1 mph - N/A   Mostly Cloudy
8:55 AM 69.8 °F - 60.8 °F 73% 30.17 in 10.0 mi Calm Calm - N/A   Mostly Cloudy
9:15 AM 69.8 °F - 60.8 °F 73% 30.18 in 10.0 mi North 4.6 mph - N/A   Overcast
9:36 AM 69.8 °F - 60.8 °F 73% 30.17 in 10.0 mi East 4.6 mph - N/A   Mostly Cloudy
9:55 AM 69.8 °F - 60.8 °F 73% 30.18 in 10.0 mi East 4.6 mph - N/A   Mostly Cloudy
10:15 AM 71.6 °F - 62.6 °F 73% 30.18 in 10.0 mi East 8.1 mph - N/A   Scattered Clouds
10:35 AM 69.8 °F - 60.8 °F 73% 30.18 in 10.0 mi ESE 4.6 mph - N/A   Mostly Cloudy
10:56 AM 69.8 °F - 60.8 °F 73% 30.17 in 10.0 mi East 3.5 mph - N/A   Mostly Cloudy
11:15 AM 71.6 °F - 62.6 °F 73% 30.17 in 10.0 mi SE 5.8 mph - N/A   Scattered Clouds
11:35 AM 71.6 °F - 62.6 °F 73% 30.16 in 10.0 mi SE 6.9 mph - N/A   Clear
12:15 PM 78.8 °F - 62.6 °F 57% 30.13 in 10.0 mi SSE 9.2 mph - N/A   Clear
12:35 PM 78.8 °F - 62.6 °F 57% 30.13 in 10.0 mi SSE 8.1 mph - N/A   Clear
12:55 PM 78.8 °F - 62.6 °F 57% 30.12 in 10.0 mi SSE 6.9 mph - N/A   Clear
1:15 PM 80.6 °F 81.8 °F 62.6 °F 54% 30.11 in 10.0 mi South 8.1 mph - N/A   Clear
1:35 PM 82.4 °F 83.9 °F 64.4 °F 54% 30.11 in 10.0 mi South 6.9 mph - N/A   Clear
1:55 PM 82.4 °F 83.9 °F 64.4 °F 54% 30.09 in 10.0 mi SSE 9.2 mph - N/A   Clear
2:35 PM 84.2 °F 85.6 °F 64.4 °F 51% 30.08 in 10.0 mi WSW 10.4 mph - N/A   Clear
2:55 PM 84.2 °F 85.6 °F 64.4 °F 51% 30.08 in 10.0 mi SW 6.9 mph - N/A   Partly Cloudy
3:15 PM 84.2 °F 85.6 °F 64.4 °F 51% 30.07 in 10.0 mi SW 3.5 mph - N/A   Partly Cloudy
3:35 PM 84.2 °F 85.6 °F 64.4 °F 51% 30.07 in 10.0 mi WSW 8.1 mph - N/A   Partly Cloudy
3:55 PM 84.2 °F 85.6 °F 64.4 °F 51% 30.06 in 10.0 mi SW 6.9 mph - N/A   Scattered Clouds
4:15 PM 84.2 °F 85.6 °F 64.4 °F 51% 30.06 in 10.0 mi Calm Calm - N/A   Mostly Cloudy
4:35 PM 84.2 °F 85.6 °F 64.4 °F 51% 30.06 in 10.0 mi West 4.6 mph - N/A   Mostly Cloudy
4:55 PM 84.2 °F 85.6 °F 64.4 °F 51% 30.06 in 10.0 mi SW 3.5 mph - N/A   Mostly Cloudy
5:35 PM 80.6 °F 82.3 °F 64.4 °F 58% 30.04 in 10.0 mi North 3.5 mph - N/A Thunderstorm Mostly Cloudy
5:55 PM 80.6 °F 82.3 °F 64.4 °F 58% 30.05 in 9.0 mi North 5.8 mph - N/A Thunderstorm Thunderstorm
6:15 PM 77.0 °F - 64.4 °F 65% 30.07 in 10.0 mi NNW 6.9 mph - N/A Thunderstorm Thunderstorm
6:35 PM 71.6 °F - 62.6 °F 73% 30.08 in 9.0 mi WNW 3.5 mph - 0.03 in Thunderstorm Thunderstorm
6:55 PM 69.8 °F - 62.6 °F 78% 30.09 in 10.0 mi WNW 8.1 mph - 0.04 in Thunderstorm Thunderstorm
7:35 PM 68.0 °F - 57.2 °F 68% 30.10 in 6.0 mi NNW 10.4 mph 23.0 mph 0.24 in Thunderstorm Thunderstorm
7:55 PM 68.0 °F - 59.0 °F 73% 30.11 in 7.0 mi South 5.8 mph - 0.30 in Thunderstorm Thunderstorm
8:15 PM 68.0 °F - 60.8 °F 78% 30.09 in 10.0 mi Calm Calm - 0.01 in   Mostly Cloudy
8:35 PM 68.0 °F - 60.8 °F 78% 30.08 in 10.0 mi Calm Calm - 0.02 in   Mostly Cloudy
8:56 PM 66.2 °F - 60.8 °F 83% 30.08 in 9.0 mi South 4.6 mph - N/A   Partly Cloudy
9:35 PM 68.0 °F - 60.8 °F 78% 30.10 in 9.0 mi Calm Calm - N/A   Clear
9:55 PM 68.0 °F - 60.8 °F 78% 30.13 in 7.0 mi WNW 9.2 mph 16.1 mph N/A   Mostly Cloudy
10:16 PM 68.0 °F - 60.8 °F 78% 30.12 in 10.0 mi Calm Calm - N/A   Mostly Cloudy
10:35 PM 68.0 °F - 60.8 °F 78% 30.12 in 9.0 mi Calm Calm - N/A   Overcast
10:55 PM 68.0 °F - 60.8 °F 78% 30.12 in 6.0 mi Calm Calm - 0.01 in   Mostly Cloudy
11:15 PM 66.2 °F - 60.8 °F 83% 30.11 in 5.0 mi Calm Calm - N/A   Mostly Cloudy
11:35 PM 68.0 °F - 60.8 °F 78% 30.10 in 7.0 mi Calm Calm - N/A   Mostly Cloudy